Vorticity
-13 7 9 44 24 16 17 14 16 16 11 9 9 2 -3 11 6 4 -12 6 14 6 4 3 9 7 5 -2 -7 37 -27 5 12 -1 11 14 7 4 4 -1 -2 11 9
13 17 -3 8 39 34 23 20 17 21 20 15 11 10 10 6 4 7 7 10 7 8 8 6 1 9 -7 1 -7 11 12 25 -3 8 -6 33 -9 1 3 -4 8 10 8
12 25 25 8 30 24 16 15 20 17 20 25 18 11 15 15 12 1 2 5 3 5 4 -2 -5 8 12 3 9 1 -9 21 19 9 -1 8 12 5 -4 10 10 12 10
-2 40 33 -7 57 19 24 26 19 30 23 24 27 22 14 12 8 15 10 -2 4 8 7 8 6 6 -0 5 8 -1 -13 49 12 -6 9 17 -3 -4 10 10 12 9 10
19 23 58 19 54 19 17 18 32 27 28 26 19 21 25 18 14 11 9 14 10 -5 54 -19 4 29 -18 8 10 4 17 8 14 12 6 -2 -8 2 10 9 7 4 6
4 19 30 56 26 15 19 19 15 13 20 23 25 39 20 -4 9 15 17 15 -12 25 30 22 7 5 7 14 -12 42 30 16 3 4 -3 23 12 8 3 2 3 4 7
7 4 24 33 40 10 15 23 22 16 15 12 11 10 17 29 31 26 10 16 17 -35 12 7 8 9 6 7 14 3 7 9 15 14 4 1 1 1 4 7 7 8 11
25 -6 5 25 22 22 18 10 16 12 10 6 8 21 11 16 6 24 24 25 -11 17 10 13 13 7 32 19 25 26 14 4 3 4 3 3 5 7 10 13 17 16 17
14 20 14 12 28 32 20 1 57 34 26 15 9 21 13 -1 16 9 1 -1 39 5 -3 0 15 14 34 13 2 1 4 5 6 7 10 12 18 20 16 15 26 41 53
10 2 8 5 18 10 20 9 32 17 -16 15 36 -5 -6 7 -12 -7 14 15 19 25 19 17 11 2 2 3 4 4 6 13 18 26 30 25 24 33 41 47 50 49 37
15 26 22 13 18 31 8 15 11 13 0 -4 5 -20 7 20 29 29 23 19 16 5 3 2 2 3 4 4 6 14 26 31 29 29 32 39 39 39 49 46 18 3 7
4 8 9 10 4 11 10 11 10 13 13 22 21 19 10 10 10 10 8 8 6 4 0 3 6 8 6 13 25 30 27 23 24 29 33 35 30 15 5 7 8 4 5
6 8 9 11 10 9 7 7 6 7 8 8 9 9 10 10 6 2 2 3 2 -1 6 7 1 4 19 29 27 18 18 20 15 14 10 7 5 6 6 10 7 6 8
8 9 8 8 8 8 8 8 8 9 11 12 11 10 8 6 3 3 5 3 2 0 3 7 4 24 29 21 15 14 9 10 13 12 13 12 11 12 10 11 7 8 8
9 8 8 10 9 7 6 7 9 10 10 8 7 6 4 4 0 4 1 1 4 4 3 3 20 36 20 14 10 9 10 13 12 14 19 17 14 13 13 11 9 11 8
7 7 8 8 9 9 10 11 12 11 9 9 6 9 6 5 1 6 3 3 4 4 -4 21 27 19 14 11 9 10 12 12 11 13 15 14 12 13 14 9 5 11 9
6 7 6 7 9 9 8 12 12 9 9 7 8 5 3 5 2 11 -2 4 1 3 1 25 28 19 9 7 8 17 11 12 12 15 12 15 13 13 13 12 5 4 11
7 7 7 8 9 8 9 12 10 8 8 8 9 7 6 6 9 -2 5 4 5 2 14 40 21 9 6 10 17 15 14 13 14 15 12 12 11 14 12 11 11 10 8
6 8 8 8 9 8 8 12 9 10 8 7 9 8 7 7 9 2 9 -3 1 11 41 30 9 6 9 14 15 13 14 15 15 10 12 12 12 12 12 11 9 11 10
4 8 8 9 9 9 8 9 9 9 8 7 9 8 9 8 1 6 3 2 -4 28 40 17 5 6 9 9 9 15 15 16 15 14 11 21 16 11 13 10 10 11 11
3 8 7 8 7 7 8 8 8 10 8 8 12 6 16 4 6 10 -4 8 -6 44 35 11 4 6 3 2 1 -1 4 14 16 16 13 11 20 12 12 11 8 11 11
3 7 8 6 8 6 7 8 9 10 10 8 10 12 6 5 8 6 -5 9 10 42 28 12 5 4 0 0 1 6 7 5 14 18 16 10 12 17 11 12 9 9 10
4 7 8 5 6 6 6 9 10 9 12 10 9 11 8 2 8 8 1 0 23 38 23 14 7 4 4 4 4 5 8 6 11 13 16 17 7 15 15 11 8 10 10
5 8 9 7 5 7 7 10 10 9 12 13 8 11 4 8 4 -1 1 9 30 32 20 16 11 7 8 6 5 9 8 9 10 15 18 17 11 13 17 11 10 12 9
7 8 9 9 8 9 10 11 9 9 13 13 9 10 -0 8 8 1 2 17 33 25 17 13 10 9 8 6 9 8 9 10 14 15 19 18 13 19 16 11 11 10 8
8 9 13 11 10 10 8 10 9 10 15 13 10 6 4 8 6 0 12 29 27 20 13 10 9 8 7 8 8 9 11 13 19 16 20 18 16 20 13 11 12 8 6
Height
5657 5651 5644 5638 5634 5633 5632 5633 5635 5640 5646 5652 5659 5666 5672 5675 5679 5682 5690 5679 5687 5689 5691 5691 5691 5689 5688 5686 5683 5678 5675 5673 5670 5666 5661 5656 5652 5648 5644 5640 5637 5632 5627
5641 5634 5625 5617 5613 5611 5611 5613 5616 5620 5625 5632 5639 5647 5655 5662 5666 5670 5674 5677 5678 5678 5679 5679 5678 5678 5677 5674 5670 5666 5663 5659 5656 5652 5646 5641 5637 5631 5627 5622 5617 5612 5607
5626 5615 5604 5599 5595 5594 5594 5596 5599 5602 5608 5615 5623 5631 5638 5645 5651 5656 5661 5664 5666 5666 5667 5665 5657 5664 5663 5661 5657 5653 5649 5644 5639 5635 5631 5625 5620 5613 5609 5603 5598 5591 5584
5615 5599 5587 5581 5576 5578 5580 5581 5584 5588 5593 5601 5609 5616 5624 5632 5638 5643 5648 5652 5654 5656 5655 5656 5654 5651 5649 5644 5641 5637 5633 5625 5622 5618 5614 5608 5602 5594 5589 5583 5579 5570 5563
5606 5588 5572 5566 5564 5566 5569 5570 5573 5578 5584 5590 5596 5603 5611 5619 5627 5633 5637 5641 5644 5644 5641 5639 5641 5635 5631 5631 5627 5623 5617 5612 5606 5601 5596 5590 5581 5574 5568 5562 5557 5550 5542
5601 5587 5571 5561 5557 5561 5563 5564 5565 5569 5573 5581 5588 5594 5601 5609 5617 5622 5626 5630 5633 5633 5631 5630 5628 5626 5622 5619 5614 5607 5602 5596 5589 5583 5577 5569 5562 5556 5548 5542 5534 5526 5521
5600 5589 5577 5566 5559 5560 5560 5560 5563 5566 5571 5577 5583 5588 5594 5601 5607 5612 5615 5619 5622 5623 5622 5620 5618 5614 5609 5605 5599 5592 5586 5578 5570 5565 5559 5550 5543 5534 5527 5518 5509 5501 5493
5597 5588 5580 5570 5564 5561 5560 5559 5562 5565 5569 5574 5579 5584 5588 5592 5600 5605 5609 5612 5613 5612 5611 5606 5603 5599 5595 5590 5584 5577 5571 5563 5554 5546 5537 5528 5519 5510 5500 5492 5482 5475 5465
5595 5589 5582 5575 5569 5565 5562 5559 5561 5563 5566 5571 5574 5583 5588 5591 5596 5597 5600 5601 5602 5602 5599 5595 5590 5587 5582 5578 5574 5567 5557 5543 5534 5523 5514 5504 5494 5483 5473 5466 5456 5449 5444
5595 5590 5584 5578 5573 5569 5567 5566 5565 5566 5568 5571 5575 5583 5586 5588 5589 5591 5593 5595 5592 5589 5587 5585 5581 5577 5571 5566 5560 5549 5536 5524 5513 5500 5489 5479 5470 5460 5451 5443 5437 5433 5429
5597 5591 5586 5582 5578 5575 5572 5572 5571 5572 5574 5577 5579 5581 5583 5584 5585 5586 5586 5585 5585 5583 5580 5576 5571 5566 5558 5549 5538 5525 5514 5503 5493 5483 5472 5459 5449 5442 5437 5433 5430 5426 5423
5599 5594 5590 5587 5584 5581 5579 5577 5577 5577 5578 5578 5579 5580 5580 5581 5581 5581 5581 5580 5577 5574 5571 5566 5559 5550 5540 5529 5517 5507 5498 5489 5480 5469 5459 5450 5442 5437 5432 5427 5423 5420 5415
5600 5597 5594 5591 5589 5587 5584 5582 5581 5580 5579 5578 5578 5578 5579 5579 5578 5577 5576 5574 5571 5568 5562 5554 5545 5533 5522 5512 5504 5495 5487 5478 5468 5460 5451 5444 5438 5432 5427 5422 5418 5413 5407
5602 5599 5596 5593 5590 5587 5585 5583 5581 5581 5580 5579 5577 5576 5576 5574 5573 5572 5569 5566 5562 5556 5549 5539 5529 5518 5508 5500 5492 5483 5475 5466 5458 5451 5444 5438 5432 5427 5422 5418 5412 5407 5401
5602 5599 5596 5593 5590 5587 5584 5582 5580 5578 5576 5575 5574 5573 5572 5570 5569 5566 5562 5557 5551 5543 5535 5526 5515 5504 5496 5488 5480 5473 5466 5458 5452 5445 5438 5431 5426 5420 5415 5411 5407 5401 5396
5601 5598 5594 5591 5588 5586 5583 5581 5579 5577 5575 5573 5572 5570 5568 5565 5562 5558 5553 5547 5540 5531 5521 5509 5499 5492 5485 5479 5473 5466 5459 5452 5445 5438 5431 5425 5419 5414 5409 5404 5400 5395 5390
5598 5595 5592 5589 5586 5583 5580 5578 5576 5574 5572 5570 5568 5565 5562 5558 5553 5548 5542 5535 5527 5518 5508 5498 5490 5483 5477 5471 5465 5458 5451 5444 5438 5431 5425 5419 5413 5407 5403 5398 5393 5388 5382
5595 5592 5589 5587 5584 5581 5579 5576 5573 5571 5568 5565 5562 5559 5555 5550 5544 5539 5532 5525 5517 5507 5497 5488 5481 5475 5470 5464 5457 5450 5443 5437 5430 5424 5418 5412 5406 5401 5395 5391 5386 5381 5376
5591 5589 5587 5584 5581 5578 5575 5572 5569 5566 5563 5559 5555 5551 5547 5541 5536 5530 5523 5515 5506 5496 5485 5479 5474 5469 5463 5457 5450 5443 5436 5429 5422 5416 5409 5404 5399 5394 5389 5384 5380 5373 5368
5587 5585 5583 5580 5577 5574 5571 5567 5564 5560 5556 5552 5548 5543 5538 5533 5527 5521 5513 5505 5495 5485 5476 5471 5466 5461 5456 5449 5443 5436 5429 5422 5416 5409 5402 5396 5391 5387 5382 5377 5372 5367 5361
5582 5580 5578 5576 5573 5569 5566 5562 5558 5554 5550 5545 5541 5536 5531 5525 5519 5511 5504 5495 5485 5475 5468 5463 5458 5453 5448 5442 5436 5429 5422 5415 5409 5402 5396 5390 5384 5379 5374 5369 5364 5359 5353
5577 5575 5573 5570 5567 5563 5559 5555 5551 5547 5543 5538 5534 5529 5523 5517 5510 5503 5495 5485 5475 5465 5459 5454 5450 5445 5440 5435 5428 5422 5415 5409 5402 5395 5388 5383 5377 5371 5366 5361 5357 5351 5345
5571 5569 5567 5563 5560 5556 5552 5549 5544 5540 5536 5531 5526 5521 5515 5508 5501 5493 5485 5475 5465 5456 5450 5445 5441 5436 5432 5426 5421 5414 5408 5401 5394 5388 5381 5375 5369 5364 5359 5354 5349 5344 5338
5565 5562 5560 5557 5553 5550 5545 5541 5537 5533 5529 5524 5518 5512 5506 5499 5492 5484 5475 5465 5455 5447 5442 5437 5432 5427 5422 5416 5411 5405 5399 5393 5386 5379 5373 5367 5362 5356 5351 5347 5342 5336 5331
5558 5556 5553 5550 5547 5543 5538 5534 5530 5526 5521 5515 5510 5504 5497 5489 5482 5473 5464 5454 5445 5438 5432 5428 5423 5418 5413 5407 5401 5395 5389 5382 5376 5370 5364 5359 5354 5349 5344 5340 5335 5330 5325
5551 5549 5547 5544 5540 5536 5532 5528 5523 5518 5513 5507 5501 5495 5488 5481 5473 5464 5454 5444 5436 5429 5424 5419 5413 5408 5402 5397 5391 5386 5379 5373 5366 5360 5355 5350 5346 5341 5337 5333 5329 5325 5320